En Direct

LFST 202130Z AUTO 36003KT CAVOK 10/05 Q1015 NOSIG


TAF LFST 201700Z 2018/2118 VRB03KT CAVOK PROB40 TEMPO 2100/2106 3000 MIFG PROB40 TEMPO 2114/2118 -SHRA FEW045TCU

Nos Avions

7 avions disponibles et entretenus par un atelier agréé, permettant tous types de vols (formation, promenade, voyage…)

l'école de pilotage

PPL, LAPL, Vol de nuit, SEP… Toutes ces formations sont dispensées par nos instructeurs bénévoles.
Formation Théorique Mermoz via la FFA

Notre Plateforme

Nous sommes basés à l’aéroport de Strasbourg-Entzheim (LFST) en plein coeur de l’Alsace qui permet de voyager rapidement outre Rhin, mais également de profiter des paysages variés

Nos réseaux

Suivez-nous sur les réseaux sociaux